Time,TemperatureF,DewpointF,PressureIn,WindDirection,WindDirectionDegrees,WindSpeedMPH,WindSpeedGustMPH,Humidity,HourlyPrecipIn,Conditions,Clouds,dailyrainin,SoftwareType,DateUTC
2013-08-05 00:03:00,67.0,54.0,30.21,East,90,6.0,17.0,63,0.00,,,0.00,Weather View 32 v70,2013-08-05 06:03:00,
2013-08-05 00:08:00,67.0,54.8,30.23,East,90,9.0,17.0,65,0.00,,,0.00,Weather View 32 v70,2013-08-05 06:08:00,
2013-08-05 00:13:00,67.0,54.8,30.23,East,90,9.0,17.0,65,0.00,,,0.00,Weather View 32 v70,2013-08-05 06:13:00,
2013-08-05 00:18:00,67.0,54.8,30.22,East,90,8.0,17.0,65,0.00,,,0.00,Weather View 32 v70,2013-08-05 06:18:00,
2013-08-05 00:23:00,67.0,55.2,30.22,East,90,8.0,17.0,66,0.00,,,0.00,Weather View 32 v70,2013-08-05 06:23:00,
2013-08-05 00:28:00,67.0,54.8,30.22,NE,45,5.0,17.0,65,0.00,,,0.00,Weather View 32 v70,2013-08-05 06:28:00,
2013-08-05 00:33:00,67.0,55.2,30.22,ENE,67,7.0,17.0,66,0.00,,,0.00,Weather View 32 v70,2013-08-05 06:33:00,
2013-08-05 00:38:00,66.0,53.9,30.22,East,90,7.0,17.0,65,0.00,,,0.00,Weather View 32 v70,2013-08-05 06:38:00,
2013-08-05 00:43:00,66.0,53.9,30.22,ENE,67,5.0,17.0,65,0.00,,,0.00,Weather View 32 v70,2013-08-05 06:43:00,
2013-08-05 00:48:00,66.0,54.3,30.22,East,90,9.0,17.0,66,0.00,,,0.00,Weather View 32 v70,2013-08-05 06:48:00,
2013-08-05 00:53:00,66.0,54.3,30.22,East,90,11.0,16.0,66,0.00,,,0.00,Weather View 32 v70,2013-08-05 06:53:00,
2013-08-05 00:58:00,66.0,54.7,30.22,East,90,7.0,16.0,67,0.00,,,0.00,Weather View 32 v70,2013-08-05 06:58:00,
2013-08-05 01:04:00,66.0,54.7,30.22,East,90,7.0,16.0,67,0.00,,,0.00,Weather View 32 v70,2013-08-05 07:04:00,
2013-08-05 01:09:00,66.0,54.7,30.22,East,90,8.0,16.0,67,0.00,,,0.00,Weather View 32 v70,2013-08-05 07:09:00,
2013-08-05 01:14:00,66.0,55.5,30.22,ENE,67,8.0,16.0,69,0.00,,,0.00,Weather View 32 v70,2013-08-05 07:14:00,
2013-08-05 01:20:00,65.0,55.7,30.22,NE,45,7.0,16.0,72,0.00,,,0.00,Weather View 32 v70,2013-08-05 07:20:00,
2013-08-05 01:25:00,65.0,56.5,30.22,ENE,67,8.0,16.0,74,0.00,,,0.00,Weather View 32 v70,2013-08-05 07:25:00,
2013-08-05 01:30:00,65.0,56.5,30.22,NE,45,6.0,16.0,74,0.00,,,0.00,Weather View 32 v70,2013-08-05 07:30:00,
2013-08-05 01:35:00,65.0,56.5,30.22,NE,45,6.0,16.0,74,0.00,,,0.00,Weather View 32 v70,2013-08-05 07:35:00,
2013-08-05 01:40:00,65.0,56.9,30.23,East,90,7.0,16.0,75,0.00,,,0.00,Weather View 32 v70,2013-08-05 07:40:00,
2013-08-05 01:45:00,64.0,56.3,30.23,ENE,67,8.0,16.0,76,0.00,,,0.00,Weather View 32 v70,2013-08-05 07:45:00,
2013-08-05 01:50:00,64.0,56.3,30.23,East,90,6.0,16.0,76,0.00,,,0.00,Weather View 32 v70,2013-08-05 07:50:00,
2013-08-05 01:55:00,64.0,56.3,30.23,NE,45,10.0,14.0,76,0.00,,,0.00,Weather View 32 v70,2013-08-05 07:55:00,
2013-08-05 02:03:00,64.0,56.6,30.22,East,90,6.0,14.0,77,0.00,,,0.00,Weather View 32 v70,2013-08-05 08:03:00,
2013-08-05 02:08:00,64.0,56.6,30.22,NE,45,6.0,14.0,77,0.00,,,0.00,Weather View 32 v70,2013-08-05 08:08:00,
2013-08-05 02:13:00,64.0,56.6,30.22,NE,45,7.0,14.0,77,0.00,,,0.00,Weather View 32 v70,2013-08-05 08:13:00,
2013-08-05 02:18:00,64.0,56.6,30.22,ENE,67,7.0,14.0,77,0.00,,,0.00,Weather View 32 v70,2013-08-05 08:18:00,
2013-08-05 02:23:00,64.0,57.0,30.22,ENE,67,6.0,14.0,78,0.00,,,0.00,Weather View 32 v70,2013-08-05 08:23:00,
2013-08-05 02:28:00,64.0,57.3,30.22,NE,45,9.0,14.0,79,0.00,,,0.00,Weather View 32 v70,2013-08-05 08:28:00,
2013-08-05 02:33:00,64.0,57.3,30.22,ENE,67,6.0,16.0,79,0.00,,,0.00,Weather View 32 v70,2013-08-05 08:33:00,
2013-08-05 02:38:00,64.0,57.3,30.22,East,90,8.0,16.0,79,0.00,,,0.00,Weather View 32 v70,2013-08-05 08:38:00,
2013-08-05 02:43:00,63.0,56.4,30.22,East,90,9.0,16.0,79,0.00,,,0.00,Weather View 32 v70,2013-08-05 08:43:00,
2013-08-05 02:48:00,63.0,56.4,30.22,East,90,7.0,16.0,79,0.00,,,0.00,Weather View 32 v70,2013-08-05 08:48:00,
2013-08-05 02:53:00,63.0,56.7,30.22,East,90,4.0,16.0,80,0.00,,,0.00,Weather View 32 v70,2013-08-05 08:53:00,
2013-08-05 02:58:00,63.0,56.7,30.22,East,90,8.0,16.0,80,0.00,,,0.00,Weather View 32 v70,2013-08-05 08:58:00,
2013-08-05 03:03:00,63.0,57.1,30.22,East,90,9.0,16.0,81,0.00,,,0.00,Weather View 32 v70,2013-08-05 09:03:00,
2013-08-05 03:08:00,63.0,57.1,30.22,East,90,8.0,16.0,81,0.00,,,0.00,Weather View 32 v70,2013-08-05 09:08:00,
2013-08-05 03:13:00,63.0,57.1,30.22,ENE,67,7.0,16.0,81,0.00,,,0.00,Weather View 32 v70,2013-08-05 09:13:00,
2013-08-05 03:19:00,63.0,57.1,30.22,East,90,6.0,16.0,81,0.00,,,0.00,Weather View 32 v70,2013-08-05 09:19:00,
2013-08-05 03:24:00,63.0,57.1,30.22,East,90,4.0,16.0,81,0.00,,,0.00,Weather View 32 v70,2013-08-05 09:24:00,
2013-08-05 03:29:00,62.0,56.1,30.22,East,90,4.0,15.0,81,0.00,,,0.00,Weather View 32 v70,2013-08-05 09:29:00,
2013-08-05 03:34:00,62.0,56.4,30.22,East,90,6.0,14.0,82,0.00,,,0.00,Weather View 32 v70,2013-08-05 09:34:00,
2013-08-05 03:40:00,62.0,56.4,30.21,East,90,6.0,14.0,82,0.00,,,0.00,Weather View 32 v70,2013-08-05 09:40:00,
2013-08-05 03:44:00,62.0,56.4,30.21,East,90,7.0,13.0,82,0.00,,,0.00,Weather View 32 v70,2013-08-05 09:44:00,
2013-08-05 03:50:00,62.0,56.1,30.21,East,90,6.0,11.0,81,0.00,,,0.00,Weather View 32 v70,2013-08-05 09:50:00,
2013-08-05 03:55:00,62.0,56.4,30.21,East,90,3.0,11.0,82,0.00,,,0.00,Weather View 32 v70,2013-08-05 09:55:00,
2013-08-05 04:00:00,62.0,56.4,30.21,East,90,4.0,11.0,82,0.00,,,0.00,Weather View 32 v70,2013-08-05 10:00:00,
2013-08-05 04:05:00,62.0,56.4,30.21,East,90,5.0,11.0,82,0.00,,,0.00,Weather View 32 v70,2013-08-05 10:05:00,
2013-08-05 04:09:00,62.0,56.8,30.21,East,90,5.0,10.0,83,0.00,,,0.00,Weather View 32 v70,2013-08-05 10:09:00,
2013-08-05 04:15:00,61.0,55.8,30.21,East,90,7.0,9.0,83,0.00,,,0.00,Weather View 32 v70,2013-08-05 10:15:00,
2013-08-05 04:20:00,61.0,55.8,30.20,East,90,8.0,9.0,83,0.00,,,0.00,Weather View 32 v70,2013-08-05 10:20:00,
2013-08-05 04:25:00,61.0,55.8,30.20,East,90,7.0,10.0,83,0.00,,,0.00,Weather View 32 v70,2013-08-05 10:25:00,
2013-08-05 04:30:00,61.0,55.8,30.20,East,90,5.0,10.0,83,0.00,,,0.00,Weather View 32 v70,2013-08-05 10:30:00,
2013-08-05 04:35:00,61.0,56.1,30.20,East,90,5.0,10.0,84,0.00,,,0.00,Weather View 32 v70,2013-08-05 10:35:00,
2013-08-05 04:40:00,61.0,56.1,30.21,East,90,4.0,10.0,84,0.00,,,0.00,Weather View 32 v70,2013-08-05 10:40:00,
2013-08-05 04:45:00,61.0,55.8,30.21,East,90,4.0,10.0,83,0.00,,,0.00,Weather View 32 v70,2013-08-05 10:45:00,
2013-08-05 04:50:00,61.0,55.5,30.21,East,90,3.0,10.0,82,0.00,,,0.00,Weather View 32 v70,2013-08-05 10:50:00,
2013-08-05 04:55:00,61.0,55.8,30.21,East,90,5.0,10.0,83,0.00,,,0.00,Weather View 32 v70,2013-08-05 10:55:00,
2013-08-05 05:00:00,61.0,55.8,30.22,East,90,3.0,10.0,83,0.00,,,0.00,Weather View 32 v70,2013-08-05 11:00:00,
2013-08-05 05:01:00,61.0,55.8,30.22,East,90,4.0,10.0,83,0.00,,,0.00,Weather View 32 v70,2013-08-05 11:01:00,
2013-08-05 05:06:00,61.0,55.8,30.22,East,90,4.0,10.0,83,0.00,,,0.00,Weather View 32 v70,2013-08-05 11:06:00,
2013-08-05 05:11:00,61.0,55.8,30.21,East,90,6.0,10.0,83,0.00,,,0.00,Weather View 32 v70,2013-08-05 11:11:00,
2013-08-05 05:15:00,61.0,55.5,30.21,East,90,7.0,10.0,82,0.00,,,0.00,Weather View 32 v70,2013-08-05 11:15:00,
2013-08-05 05:21:00,61.0,55.8,30.22,East,90,4.0,10.0,83,0.00,,,0.00,Weather View 32 v70,2013-08-05 11:21:00,
2013-08-05 05:26:00,61.0,55.5,30.21,East,90,9.0,10.0,82,0.00,,,0.00,Weather View 32 v70,2013-08-05 11:26:00,
2013-08-05 05:32:00,61.0,55.8,30.21,East,90,5.0,10.0,83,0.00,,,0.00,Weather View 32 v70,2013-08-05 11:32:00,
2013-08-05 05:36:00,61.0,55.5,30.22,East,90,3.0,10.0,82,0.00,,,0.00,Weather View 32 v70,2013-08-05 11:36:00,
2013-08-05 05:42:00,61.0,56.1,30.22,East,90,2.0,10.0,84,0.00,,,0.00,Weather View 32 v70,2013-08-05 11:42:00,
2013-08-05 05:47:00,61.0,56.1,30.23,East,90,5.0,10.0,84,0.00,,,0.00,Weather View 32 v70,2013-08-05 11:47:00,
2013-08-05 05:52:00,61.0,56.4,30.23,East,90,5.0,10.0,85,0.00,,,0.00,Weather View 32 v70,2013-08-05 11:52:00,
2013-08-05 05:58:00,61.0,56.4,30.22,East,90,5.0,10.0,85,0.00,,,0.00,Weather View 32 v70,2013-08-05 11:58:00,
2013-08-05 06:03:00,61.0,56.4,30.22,East,90,2.0,10.0,85,0.00,,,0.00,Weather View 32 v70,2013-08-05 12:03:00,
2013-08-05 06:08:00,60.0,55.5,30.22,East,90,4.0,10.0,85,0.00,,,0.00,Weather View 32 v70,2013-08-05 12:08:00,
2013-08-05 06:13:00,60.0,55.8,30.22,East,90,5.0,10.0,86,0.00,,,0.00,Weather View 32 v70,2013-08-05 12:13:00,
2013-08-05 06:18:00,60.0,56.1,30.22,East,90,2.0,9.0,87,0.00,,,0.00,Weather View 32 v70,2013-08-05 12:18:00,
2013-08-05 06:23:00,60.0,56.1,30.22,East,90,3.0,9.0,87,0.00,,,0.00,Weather View 32 v70,2013-08-05 12:23:00,
2013-08-05 06:28:00,60.0,56.1,30.23,East,90,1.0,8.0,87,0.00,,,0.00,Weather View 32 v70,2013-08-05 12:28:00,
2013-08-05 06:33:00,60.0,56.7,30.23,East,90,4.0,8.0,89,0.00,,,0.00,Weather View 32 v70,2013-08-05 12:33:00,
2013-08-05 06:38:00,60.0,57.0,30.23,East,90,5.0,7.0,90,0.00,,,0.00,Weather View 32 v70,2013-08-05 12:38:00,
2013-08-05 06:43:00,59.0,56.1,30.23,East,90,5.0,7.0,90,0.00,,,0.00,Weather View 32 v70,2013-08-05 12:43:00,
2013-08-05 06:48:00,59.0,55.8,30.23,East,90,0.0,7.0,89,0.00,,,0.00,Weather View 32 v70,2013-08-05 12:48:00,
2013-08-05 06:53:00,60.0,57.0,30.23,East,90,0.0,7.0,90,0.00,,,0.00,Weather View 32 v70,2013-08-05 12:53:00,
2013-08-05 06:58:00,60.0,56.4,30.24,East,90,3.0,7.0,88,0.00,,,0.00,Weather View 32 v70,2013-08-05 12:58:00,
2013-08-05 07:03:00,60.0,55.5,30.24,East,90,3.0,7.0,85,0.00,,,0.00,Weather View 32 v70,2013-08-05 13:03:00,
2013-08-05 07:08:00,61.0,55.5,30.24,East,90,0.0,7.0,82,0.00,,,0.00,Weather View 32 v70,2013-08-05 13:08:00,
2013-08-05 07:13:00,62.0,55.7,30.24,East,90,0.0,6.0,80,0.00,,,0.00,Weather View 32 v70,2013-08-05 13:13:00,
2013-08-05 07:18:00,62.0,54.7,30.23,East,90,2.0,6.0,77,0.00,,,0.00,Weather View 32 v70,2013-08-05 13:18:00,
2013-08-05 07:23:00,63.0,53.8,30.23,East,90,2.0,6.0,72,0.00,,,0.00,Weather View 32 v70,2013-08-05 13:23:00,
2013-08-05 07:29:00,64.0,54.0,30.23,East,90,3.0,6.0,70,0.00,,,0.00,Weather View 32 v70,2013-08-05 13:29:00,
2013-08-05 07:34:00,65.0,53.7,30.23,East,90,4.0,6.0,67,0.00,,,0.00,Weather View 32 v70,2013-08-05 13:34:00,
2013-08-05 07:39:00,66.0,55.1,30.23,ENE,67,4.0,7.0,68,0.00,,,0.00,Weather View 32 v70,2013-08-05 13:39:00,
2013-08-05 07:45:00,66.0,53.9,30.23,ENE,67,3.0,7.0,65,0.00,,,0.00,Weather View 32 v70,2013-08-05 13:45:00,
2013-08-05 07:50:00,67.0,54.8,30.23,East,90,5.0,8.0,65,0.00,,,0.00,Weather View 32 v70,2013-08-05 13:50:00,
2013-08-05 07:56:00,67.0,54.4,30.23,East,90,7.0,8.0,64,0.00,,,0.00,Weather View 32 v70,2013-08-05 13:56:00,
2013-08-05 08:01:00,67.0,54.8,30.23,East,90,7.0,9.0,65,0.00,,,0.00,Weather View 32 v70,2013-08-05 14:01:00,
2013-08-05 08:06:00,67.0,54.8,30.23,East,90,4.0,10.0,65,0.00,,,0.00,Weather View 32 v70,2013-08-05 14:06:00,
2013-08-05 08:11:00,67.0,54.8,30.23,East,90,5.0,10.0,65,0.00,,,0.00,Weather View 32 v70,2013-08-05 14:11:00,
2013-08-05 08:16:00,67.0,54.4,30.23,East,90,2.0,10.0,64,0.00,,,0.00,Weather View 32 v70,2013-08-05 14:16:00,
2013-08-05 08:21:00,67.0,54.8,30.23,East,90,6.0,10.0,65,0.00,,,0.00,Weather View 32 v70,2013-08-05 14:21:00,
2013-08-05 08:26:00,68.0,54.0,30.23,East,90,2.0,10.0,61,0.00,,,0.00,Weather View 32 v70,2013-08-05 14:26:00,
2013-08-05 08:31:00,69.0,53.6,30.23,East,90,0.0,10.0,58,0.00,,,0.00,Weather View 32 v70,2013-08-05 14:31:00,
2013-08-05 08:36:00,69.0,53.1,30.22,East,90,4.0,10.0,57,0.00,,,0.00,Weather View 32 v70,2013-08-05 14:36:00,
2013-08-05 08:41:00,70.0,53.5,30.22,East,90,3.0,10.0,56,0.00,,,0.00,Weather View 32 v70,2013-08-05 14:41:00,
2013-08-05 08:46:00,70.0,54.0,30.22,East,90,5.0,10.0,57,0.00,,,0.00,Weather View 32 v70,2013-08-05 14:46:00,
2013-08-05 08:51:00,70.0,54.5,30.22,ENE,67,8.0,10.0,58,0.00,,,0.00,Weather View 32 v70,2013-08-05 14:51:00,
2013-08-05 08:57:00,71.0,54.5,30.23,East,90,4.0,10.0,56,0.00,,,0.00,Weather View 32 v70,2013-08-05 14:57:00,
2013-08-05 09:01:00,71.0,54.5,30.23,NE,45,5.0,10.0,56,0.00,,,0.00,Weather View 32 v70,2013-08-05 15:01:00,
2013-08-05 09:07:00,71.0,53.0,30.22,SE,135,0.0,10.0,53,0.00,,,0.00,Weather View 32 v70,2013-08-05 15:07:00,
2013-08-05 09:12:00,72.0,54.4,30.22,East,90,7.0,9.0,54,0.00,,,0.00,Weather View 32 v70,2013-08-05 15:12:00,
2013-08-05 09:17:00,72.0,52.8,30.22,East,90,3.0,9.0,51,0.00,,,0.00,Weather View 32 v70,2013-08-05 15:17:00,
2013-08-05 09:22:00,73.0,52.7,30.22,East,90,4.0,9.0,49,0.00,,,0.00,Weather View 32 v70,2013-08-05 15:22:00,
2013-08-05 09:27:00,74.0,53.0,30.21,South,180,6.0,9.0,48,0.00,,,0.00,Weather View 32 v70,2013-08-05 15:27:00,
2013-08-05 09:32:00,74.0,51.8,30.21,ESE,112,2.0,9.0,46,0.00,,,0.00,Weather View 32 v70,2013-08-05 15:32:00,
2013-08-05 09:37:00,75.0,52.2,30.21,ESE,112,5.0,9.0,45,0.00,,,0.00,Weather View 32 v70,2013-08-05 15:37:00,
2013-08-05 09:42:00,76.0,53.1,30.21,South,180,6.0,9.0,45,0.00,,,0.00,Weather View 32 v70,2013-08-05 15:42:00,
2013-08-05 09:47:00,77.0,52.7,30.20,SSW,202,0.0,9.0,43,0.00,,,0.00,Weather View 32 v70,2013-08-05 15:47:00,
2013-08-05 09:52:00,77.0,50.8,30.20,ESE,112,6.0,9.0,40,0.00,,,0.00,Weather View 32 v70,2013-08-05 15:52:00,
2013-08-05 09:58:00,78.0,52.3,30.20,East,90,3.0,9.0,41,0.00,,,0.00,Weather View 32 v70,2013-08-05 15:58:00,
2013-08-05 10:03:00,78.0,52.3,30.20,East,90,7.0,9.0,41,0.00,,,0.00,Weather View 32 v70,2013-08-05 16:03:00,
2013-08-05 10:08:00,79.0,53.9,30.20,East,90,3.0,9.0,42,0.00,,,0.00,Weather View 32 v70,2013-08-05 16:08:00,
2013-08-05 10:13:00,79.0,51.8,30.20,East,90,6.0,9.0,39,0.00,,,0.00,Weather View 32 v70,2013-08-05 16:13:00,
2013-08-05 10:18:00,79.0,51.1,30.19,SW,225,1.0,8.0,38,0.00,,,0.00,Weather View 32 v70,2013-08-05 16:18:00,
2013-08-05 10:23:00,79.0,49.7,30.19,South,180,0.0,8.0,36,0.00,,,0.00,Weather View 32 v70,2013-08-05 16:23:00,
2013-08-05 10:28:00,80.0,49.0,30.19,SE,135,0.0,8.0,34,0.00,,,0.00,Weather View 32 v70,2013-08-05 16:28:00,
2013-08-05 10:33:00,80.0,52.0,30.19,East,90,0.0,8.0,38,0.00,,,0.00,Weather View 32 v70,2013-08-05 16:33:00,
2013-08-05 10:39:00,80.0,49.8,30.18,SSE,157,8.0,8.0,35,0.00,,,0.00,Weather View 32 v70,2013-08-05 16:39:00,
2013-08-05 10:44:00,81.0,49.1,30.18,SW,225,3.0,8.0,33,0.00,,,0.00,Weather View 32 v70,2013-08-05 16:44:00,
2013-08-05 10:49:00,81.0,48.3,30.18,SE,135,0.0,8.0,32,0.00,,,0.00,Weather View 32 v70,2013-08-05 16:49:00,
2013-08-05 10:53:00,82.0,50.0,30.18,NW,315,0.0,8.0,33,0.00,,,0.00,Weather View 32 v70,2013-08-05 16:53:00,
2013-08-05 10:59:00,82.0,48.3,30.17,SSW,202,3.0,8.0,31,0.00,,,0.00,Weather View 32 v70,2013-08-05 16:59:00,
2013-08-05 11:04:00,83.0,49.2,30.17,South,180,4.0,8.0,31,0.00,,,0.00,Weather View 32 v70,2013-08-05 17:04:00,
2013-08-05 11:09:00,83.0,47.4,30.16,South,180,5.0,8.0,29,0.00,,,0.00,Weather View 32 v70,2013-08-05 17:09:00,
2013-08-05 11:14:00,84.0,48.2,30.16,SW,225,2.0,8.0,29,0.00,,,0.00,Weather View 32 v70,2013-08-05 17:14:00,
2013-08-05 11:19:00,84.0,49.1,30.16,SW,225,4.0,8.0,30,0.00,,,0.00,Weather View 32 v70,2013-08-05 17:19:00,
2013-08-05 11:24:00,84.0,48.2,30.16,South,180,5.0,10.0,29,0.00,,,0.00,Weather View 32 v70,2013-08-05 17:24:00,
2013-08-05 11:29:00,85.0,49.1,30.16,South,180,5.0,10.0,29,0.00,,,0.00,Weather View 32 v70,2013-08-05 17:29:00,
2013-08-05 11:34:00,85.0,48.1,30.16,South,180,5.0,10.0,28,0.00,,,0.00,Weather View 32 v70,2013-08-05 17:34:00,
2013-08-05 11:39:00,85.0,46.2,30.16,SSW,202,4.0,10.0,26,0.00,,,0.00,Weather View 32 v70,2013-08-05 17:39:00,
2013-08-05 11:44:00,85.0,45.1,30.16,SE,135,2.0,10.0,25,0.00,,,0.00,Weather View 32 v70,2013-08-05 17:44:00,
2013-08-05 11:49:00,85.0,45.1,30.16,South,180,4.0,10.0,25,0.00,,,0.00,Weather View 32 v70,2013-08-05 17:49:00,
2013-08-05 11:54:00,85.0,45.1,30.16,South,180,7.0,10.0,25,0.00,,,0.00,Weather View 32 v70,2013-08-05 17:54:00,
2013-08-05 11:59:00,85.0,47.2,30.15,SW,225,7.0,10.0,27,0.00,,,0.00,Weather View 32 v70,2013-08-05 17:59:00,
2013-08-05 12:04:00,85.0,49.1,30.15,West,270,8.0,10.0,29,0.00,,,0.00,Weather View 32 v70,2013-08-05 18:04:00,
2013-08-05 12:09:00,86.0,48.0,30.15,WSW,247,4.0,10.0,27,0.00,,,0.00,Weather View 32 v70,2013-08-05 18:09:00,
2013-08-05 12:14:00,86.0,49.0,30.15,SW,225,0.0,10.0,28,0.00,,,0.00,Weather View 32 v70,2013-08-05 18:14:00,
2013-08-05 12:20:00,86.0,49.0,30.14,South,180,2.0,10.0,28,0.00,,,0.00,Weather View 32 v70,2013-08-05 18:20:00,
2013-08-05 12:25:00,86.0,49.9,30.14,SW,225,3.0,10.0,29,0.00,,,0.00,Weather View 32 v70,2013-08-05 18:25:00,
2013-08-05 12:30:00,86.0,49.0,30.14,WNW,292,5.0,10.0,28,0.00,,,0.00,Weather View 32 v70,2013-08-05 18:30:00,
2013-08-05 12:35:00,86.0,51.7,30.14,West,270,5.0,10.0,31,0.00,,,0.00,Weather View 32 v70,2013-08-05 18:35:00,
2013-08-05 12:40:00,86.0,48.0,30.14,SW,225,4.0,11.0,27,0.00,,,0.00,Weather View 32 v70,2013-08-05 18:40:00,
2013-08-05 12:45:00,86.0,47.0,30.14,North,360,3.0,11.0,26,0.00,,,0.00,Weather View 32 v70,2013-08-05 18:45:00,
2013-08-05 12:50:00,86.0,48.0,30.13,SW,225,6.0,11.0,27,0.00,,,0.00,Weather View 32 v70,2013-08-05 18:50:00,
2013-08-05 12:55:00,87.0,49.8,30.13,West,270,4.0,11.0,28,0.00,,,0.00,Weather View 32 v70,2013-08-05 18:55:00,
2013-08-05 13:00:00,87.0,45.7,30.13,SW,225,5.0,11.0,24,0.00,,,0.00,Weather View 32 v70,2013-08-05 19:00:00,
2013-08-05 13:05:00,88.0,45.4,30.13,SW,225,12.0,12.0,23,0.00,,,0.00,Weather View 32 v70,2013-08-05 19:05:00,
2013-08-05 13:10:00,88.0,47.7,30.12,SW,225,8.0,13.0,25,0.00,,,0.00,Weather View 32 v70,2013-08-05 19:10:00,
2013-08-05 13:15:00,88.0,45.4,30.12,SSW,202,5.0,13.0,23,0.00,,,0.00,Weather View 32 v70,2013-08-05 19:15:00,
2013-08-05 13:20:00,88.0,44.3,30.12,SW,225,7.0,13.0,22,0.00,,,0.00,Weather View 32 v70,2013-08-05 19:20:00,
2013-08-05 13:25:00,88.0,41.8,30.12,SW,225,3.0,13.0,20,0.00,,,0.00,Weather View 32 v70,2013-08-05 19:25:00,
2013-08-05 13:30:00,88.0,44.3,30.11,West,270,0.0,13.0,22,0.00,,,0.00,Weather View 32 v70,2013-08-05 19:30:00,
2013-08-05 13:35:00,88.0,46.6,30.11,WSW,247,10.0,16.0,24,0.00,,,0.00,Weather View 32 v70,2013-08-05 19:35:00,
2013-08-05 13:40:00,88.0,43.0,30.11,SW,225,7.0,16.0,21,0.00,,,0.00,Weather View 32 v70,2013-08-05 19:40:00,
2013-08-05 13:46:00,88.0,44.3,30.11,NW,315,0.0,16.0,22,0.00,,,0.00,Weather View 32 v70,2013-08-05 19:46:00,
2013-08-05 13:51:00,88.0,44.3,30.10,SSW,202,2.0,16.0,22,0.00,,,0.00,Weather View 32 v70,2013-08-05 19:51:00,
2013-08-05 13:56:00,89.0,47.4,30.10,West,270,8.0,16.0,24,0.00,,,0.00,Weather View 32 v70,2013-08-05 19:56:00,
2013-08-05 14:01:00,89.0,45.1,30.10,SW,225,4.0,16.0,22,0.00,,,0.00,Weather View 32 v70,2013-08-05 20:01:00,
2013-08-05 14:06:00,89.0,47.4,30.10,West,270,6.0,16.0,24,0.00,,,0.00,Weather View 32 v70,2013-08-05 20:06:00,
2013-08-05 14:11:00,89.0,47.4,30.08,WSW,247,5.0,16.0,24,0.00,,,0.00,Weather View 32 v70,2013-08-05 20:11:00,
2013-08-05 14:16:00,89.0,46.3,30.08,West,270,7.0,16.0,23,0.00,,,0.00,Weather View 32 v70,2013-08-05 20:16:00,
2013-08-05 14:21:00,89.0,46.3,30.08,WNW,292,4.0,16.0,23,0.00,,,0.00,Weather View 32 v70,2013-08-05 20:21:00,
2013-08-05 14:26:00,89.0,47.4,30.08,West,270,3.0,16.0,24,0.00,,,0.00,Weather View 32 v70,2013-08-05 20:26:00,
2013-08-05 14:31:00,89.0,45.1,30.08,SW,225,3.0,16.0,22,0.00,,,0.00,Weather View 32 v70,2013-08-05 20:31:00,
2013-08-05 14:37:00,90.0,43.4,30.07,West,270,5.0,12.0,20,0.00,,,0.00,Weather View 32 v70,2013-08-05 20:37:00,
2013-08-05 14:42:00,90.0,43.4,30.07,SW,225,5.0,13.0,20,0.00,,,0.00,Weather View 32 v70,2013-08-05 20:42:00,
2013-08-05 14:47:00,90.0,42.1,30.06,SW,225,10.0,13.0,19,0.00,,,0.00,Weather View 32 v70,2013-08-05 20:47:00,
2013-08-05 14:52:00,90.0,43.4,30.06,WNW,292,5.0,15.0,20,0.00,,,0.00,Weather View 32 v70,2013-08-05 20:52:00,
2013-08-05 14:57:00,90.0,43.4,30.06,SW,225,11.0,15.0,20,0.00,,,0.00,Weather View 32 v70,2013-08-05 20:57:00,
2013-08-05 15:02:00,90.0,43.4,30.06,SW,225,9.0,15.0,20,0.00,,,0.00,Weather View 32 v70,2013-08-05 21:02:00,
2013-08-05 15:07:00,90.0,43.4,30.06,West,270,4.0,15.0,20,0.00,,,0.00,Weather View 32 v70,2013-08-05 21:07:00,
2013-08-05 15:12:00,90.0,44.7,30.06,West,270,5.0,15.0,21,0.00,,,0.00,Weather View 32 v70,2013-08-05 21:12:00,
2013-08-05 15:17:00,91.0,44.2,30.04,WSW,247,8.0,15.0,20,0.00,,,0.00,Weather View 32 v70,2013-08-05 21:17:00,
2013-08-05 15:22:00,91.0,45.5,30.04,SW,225,4.0,15.0,21,0.00,,,0.00,Weather View 32 v70,2013-08-05 21:22:00,
2013-08-05 15:27:00,91.0,42.9,30.04,West,270,4.0,15.0,19,0.00,,,0.00,Weather View 32 v70,2013-08-05 21:27:00,
2013-08-05 15:32:00,90.0,43.4,30.04,WNW,292,8.0,15.0,20,0.00,,,0.00,Weather View 32 v70,2013-08-05 21:32:00,
2013-08-05 15:37:00,90.0,44.7,30.04,West,270,4.0,15.0,21,0.00,,,0.00,Weather View 32 v70,2013-08-05 21:37:00,
2013-08-05 15:42:00,90.0,42.1,30.04,West,270,3.0,15.0,19,0.00,,,0.00,Weather View 32 v70,2013-08-05 21:42:00,
2013-08-05 15:47:00,91.0,41.5,30.03,West,270,3.0,15.0,18,0.00,,,0.00,Weather View 32 v70,2013-08-05 21:47:00,
2013-08-05 15:52:00,90.0,42.1,30.03,SW,225,7.0,15.0,19,0.00,,,0.00,Weather View 32 v70,2013-08-05 21:52:00,
2013-08-05 15:57:00,90.0,42.1,30.03,West,270,4.0,15.0,19,0.00,,,0.00,Weather View 32 v70,2013-08-05 21:57:00,
2013-08-05 16:03:00,90.0,43.4,30.03,West,270,6.0,15.0,20,0.00,,,0.00,Weather View 32 v70,2013-08-05 22:03:00,
2013-08-05 16:08:00,90.0,45.9,30.04,West,270,5.0,15.0,22,0.00,,,0.00,Weather View 32 v70,2013-08-05 22:08:00,
2013-08-05 16:13:00,89.0,43.9,30.04,WSW,247,7.0,15.0,21,0.00,,,0.00,Weather View 32 v70,2013-08-05 22:13:00,
2013-08-05 16:18:00,89.0,42.6,30.04,SSW,202,6.0,15.0,20,0.00,,,0.00,Weather View 32 v70,2013-08-05 22:18:00,
2013-08-05 16:23:00,89.0,41.3,30.04,NW,315,5.0,15.0,19,0.00,,,0.00,Weather View 32 v70,2013-08-05 22:23:00,
2013-08-05 16:28:00,89.0,39.9,30.03,NW,315,7.0,15.0,18,0.00,,,0.00,Weather View 32 v70,2013-08-05 22:28:00,
2013-08-05 16:33:00,90.0,40.7,30.03,SW,225,13.0,15.0,18,0.00,,,0.00,Weather View 32 v70,2013-08-05 22:33:00,
2013-08-05 16:38:00,90.0,39.2,30.02,SW,225,8.0,16.0,17,0.00,,,0.00,Weather View 32 v70,2013-08-05 22:38:00,
2013-08-05 16:43:00,90.0,37.6,30.02,SSW,202,8.0,16.0,16,0.00,,,0.00,Weather View 32 v70,2013-08-05 22:43:00,
2013-08-05 16:48:00,90.0,43.4,30.02,WSW,247,5.0,17.0,20,0.00,,,0.00,Weather View 32 v70,2013-08-05 22:48:00,
2013-08-05 16:53:00,90.0,42.1,30.02,WSW,247,6.0,17.0,19,0.00,,,0.00,Weather View 32 v70,2013-08-05 22:53:00,
2013-08-05 16:58:00,90.0,40.7,30.02,West,270,6.0,17.0,18,0.00,,,0.00,Weather View 32 v70,2013-08-05 22:58:00,
2013-08-05 17:04:00,89.0,42.6,30.02,West,270,5.0,17.0,20,0.00,,,0.00,Weather View 32 v70,2013-08-05 23:04:00,
2013-08-05 17:09:00,88.0,44.3,30.03,WSW,247,7.0,17.0,22,0.00,,,0.00,Weather View 32 v70,2013-08-05 23:09:00,
2013-08-05 17:14:00,87.0,45.7,30.03,SW,225,3.0,17.0,24,0.00,,,0.00,Weather View 32 v70,2013-08-05 23:14:00,
2013-08-05 17:19:00,87.0,44.6,30.03,SW,225,4.0,17.0,23,0.00,,,0.00,Weather View 32 v70,2013-08-05 23:19:00,
2013-08-05 17:24:00,86.0,42.6,30.03,South,180,4.0,17.0,22,0.00,,,0.00,Weather View 32 v70,2013-08-05 23:24:00,
2013-08-05 17:29:00,86.0,42.6,30.03,SW,225,10.0,17.0,22,0.00,,,0.00,Weather View 32 v70,2013-08-05 23:29:00,
2013-08-05 17:35:00,85.0,48.1,30.03,SW,225,14.0,27.0,28,0.00,,,0.00,Weather View 32 v70,2013-08-05 23:35:00,
2013-08-05 17:40:00,84.0,48.2,30.04,SW,225,9.0,27.0,29,0.00,,,0.00,Weather View 32 v70,2013-08-05 23:40:00,
2013-08-05 17:45:00,83.0,47.4,30.04,SW,225,14.0,27.0,29,0.00,,,0.00,Weather View 32 v70,2013-08-05 23:45:00,
2013-08-05 17:50:00,82.0,46.5,30.04,WSW,247,8.0,27.0,29,0.00,,,0.00,Weather View 32 v70,2013-08-05 23:50:00,
2013-08-05 17:55:00,82.0,47.4,30.04,SW,225,14.0,27.0,30,0.00,,,0.00,Weather View 32 v70,2013-08-05 23:55:00,
2013-08-05 18:01:00,82.0,46.5,30.04,SW,225,12.0,27.0,29,0.00,,,0.00,Weather View 32 v70,2013-08-06 00:01:00,
2013-08-05 18:06:00,81.0,46.5,30.04,SW,225,13.0,27.0,30,0.00,,,0.00,Weather View 32 v70,2013-08-06 00:06:00,
2013-08-05 18:11:00,81.0,46.5,30.04,SW,225,12.0,27.0,30,0.00,,,0.00,Weather View 32 v70,2013-08-06 00:11:00,
2013-08-05 18:16:00,80.0,45.7,30.04,SW,225,22.0,27.0,30,0.00,,,0.00,Weather View 32 v70,2013-08-06 00:16:00,
2013-08-05 18:21:00,80.0,45.7,30.04,WSW,247,6.0,27.0,30,0.00,,,0.00,Weather View 32 v70,2013-08-06 00:21:00,
2013-08-05 18:27:00,79.0,43.9,30.04,SW,225,11.0,27.0,29,0.00,,,0.00,Weather View 32 v70,2013-08-06 00:27:00,
2013-08-05 18:32:00,79.0,43.9,30.04,SW,225,14.0,27.0,29,0.00,,,0.00,Weather View 32 v70,2013-08-06 00:32:00,
2013-08-05 18:37:00,79.0,43.9,30.04,SW,225,13.0,28.0,29,0.00,,,0.00,Weather View 32 v70,2013-08-06 00:37:00,
2013-08-05 18:42:00,78.0,44.0,30.04,SW,225,15.0,28.0,30,0.00,,,0.00,Weather View 32 v70,2013-08-06 00:42:00,
2013-08-05 18:47:00,78.0,44.8,30.04,SW,225,20.0,28.0,31,0.00,,,0.00,Weather View 32 v70,2013-08-06 00:47:00,
2013-08-05 18:52:00,78.0,45.7,30.04,WSW,247,9.0,28.0,32,0.00,,,0.00,Weather View 32 v70,2013-08-06 00:52:00,
2013-08-05 18:57:00,78.0,44.8,30.04,SW,225,8.0,28.0,31,0.00,,,0.00,Weather View 32 v70,2013-08-06 00:57:00,
2013-08-05 19:02:00,77.0,43.1,30.04,West,270,13.0,28.0,30,0.00,,,0.00,Weather View 32 v70,2013-08-06 01:02:00,
2013-08-05 19:07:00,77.0,43.1,30.04,West,270,8.0,28.0,30,0.00,,,0.00,Weather View 32 v70,2013-08-06 01:07:00,
2013-08-05 19:12:00,77.0,43.1,30.04,WSW,247,8.0,28.0,30,0.00,,,0.00,Weather View 32 v70,2013-08-06 01:12:00,
2013-08-05 19:17:00,78.0,43.1,30.04,WSW,247,9.0,28.0,29,0.00,,,0.00,Weather View 32 v70,2013-08-06 01:17:00,
2013-08-05 19:22:00,77.0,42.2,30.04,WSW,247,3.0,28.0,29,0.00,,,0.00,Weather View 32 v70,2013-08-06 01:22:00,
2013-08-05 19:27:00,77.0,42.2,30.04,SW,225,3.0,28.0,29,0.00,,,0.00,Weather View 32 v70,2013-08-06 01:27:00,
2013-08-05 19:32:00,77.0,41.3,30.04,SSW,202,6.0,28.0,28,0.00,,,0.00,Weather View 32 v70,2013-08-06 01:32:00,
2013-08-05 19:38:00,78.0,43.1,30.04,SE,135,3.0,27.0,29,0.00,,,0.00,Weather View 32 v70,2013-08-06 01:38:00,
2013-08-05 19:43:00,78.0,44.0,30.04,SW,225,7.0,27.0,30,0.00,,,0.00,Weather View 32 v70,2013-08-06 01:43:00,
2013-08-05 19:48:00,78.0,44.0,30.04,West,270,5.0,23.0,30,0.00,,,0.00,Weather View 32 v70,2013-08-06 01:48:00,
2013-08-05 19:53:00,77.0,43.1,30.04,NW,315,6.0,17.0,30,0.00,,,0.00,Weather View 32 v70,2013-08-06 01:53:00,
2013-08-05 19:58:00,77.0,43.1,30.06,WNW,292,5.0,15.0,30,0.00,,,0.00,Weather View 32 v70,2013-08-06 01:58:00,
2013-08-05 20:04:00,77.0,44.0,30.06,WNW,292,9.0,15.0,31,0.00,,,0.00,Weather View 32 v70,2013-08-06 02:04:00,
2013-08-05 20:09:00,77.0,45.6,30.06,WSW,247,7.0,16.0,33,0.00,,,0.00,Weather View 32 v70,2013-08-06 02:09:00,
2013-08-05 20:14:00,76.0,44.7,30.06,West,270,10.0,16.0,33,0.00,,,0.00,Weather View 32 v70,2013-08-06 02:14:00,
2013-08-05 20:19:00,76.0,46.3,30.06,WSW,247,7.0,16.0,35,0.00,,,0.00,Weather View 32 v70,2013-08-06 02:19:00,
2013-08-05 20:24:00,76.0,47.0,30.06,West,270,8.0,16.0,36,0.00,,,0.00,Weather View 32 v70,2013-08-06 02:24:00,
2013-08-05 20:29:00,76.0,47.8,30.07,NW,315,7.0,16.0,37,0.00,,,0.00,Weather View 32 v70,2013-08-06 02:29:00,
2013-08-05 20:35:00,75.0,46.9,30.07,NW,315,6.0,16.0,37,0.00,,,0.00,Weather View 32 v70,2013-08-06 02:35:00,
2013-08-05 20:39:00,75.0,46.2,30.07,North,360,7.0,16.0,36,0.00,,,0.00,Weather View 32 v70,2013-08-06 02:39:00,
2013-08-05 20:45:00,75.0,46.2,30.07,NW,315,4.0,16.0,36,0.00,,,0.00,Weather View 32 v70,2013-08-06 02:45:00,
2013-08-05 20:50:00,75.0,45.4,30.07,NW,315,6.0,16.0,35,0.00,,,0.00,Weather View 32 v70,2013-08-06 02:50:00,
2013-08-05 20:55:00,75.0,45.4,30.07,NW,315,6.0,16.0,35,0.00,,,0.00,Weather View 32 v70,2013-08-06 02:55:00,
2013-08-05 21:00:00,75.0,44.6,30.07,NNW,337,5.0,16.0,34,0.00,,,0.00,Weather View 32 v70,2013-08-06 03:00:00,
2013-08-05 21:05:00,75.0,45.4,30.07,NW,315,4.0,16.0,35,0.00,,,0.00,Weather View 32 v70,2013-08-06 03:05:00,
2013-08-05 21:10:00,75.0,44.6,30.08,North,360,3.0,14.0,34,0.00,,,0.00,Weather View 32 v70,2013-08-06 03:10:00,
2013-08-05 21:15:00,75.0,44.6,30.08,North,360,5.0,13.0,34,0.00,,,0.00,Weather View 32 v70,2013-08-06 03:15:00,
2013-08-05 21:20:00,75.0,44.6,30.08,North,360,1.0,13.0,34,0.00,,,0.00,Weather View 32 v70,2013-08-06 03:20:00,
2013-08-05 21:25:00,75.0,46.2,30.08,North,360,3.0,12.0,36,0.00,,,0.00,Weather View 32 v70,2013-08-06 03:25:00,
2013-08-05 21:30:00,74.0,46.0,30.09,North,360,8.0,10.0,37,0.00,,,0.00,Weather View 32 v70,2013-08-06 03:30:00,
2013-08-05 21:35:00,75.0,46.9,30.09,NNE,22,11.0,15.0,37,0.00,,,0.00,Weather View 32 v70,2013-08-06 03:35:00,
2013-08-05 21:40:00,75.0,47.6,30.09,North,360,3.0,15.0,38,0.00,,,0.00,Weather View 32 v70,2013-08-06 03:40:00,
2013-08-05 21:45:00,74.0,47.4,30.09,NW,315,4.0,16.0,39,0.00,,,0.00,Weather View 32 v70,2013-08-06 03:45:00,
2013-08-05 21:50:00,74.0,48.7,30.10,North,360,9.0,16.0,41,0.00,,,0.00,Weather View 32 v70,2013-08-06 03:50:00,
2013-08-05 21:55:00,73.0,48.5,30.10,NNW,337,8.0,16.0,42,0.00,,,0.00,Weather View 32 v70,2013-08-06 03:55:00,
2013-08-05 22:00:00,73.0,49.1,30.10,North,360,7.0,16.0,43,0.00,,,0.00,Weather View 32 v70,2013-08-06 04:00:00,
2013-08-05 22:01:00,73.0,49.1,30.10,NW,315,4.0,16.0,43,0.00,,,0.00,Weather View 32 v70,2013-08-06 04:01:00,
2013-08-05 22:06:00,72.0,48.8,30.10,North,360,11.0,16.0,44,0.00,,,0.00,Weather View 32 v70,2013-08-06 04:06:00,
2013-08-05 22:11:00,72.0,49.4,30.10,North,360,8.0,17.0,45,0.00,,,0.00,Weather View 32 v70,2013-08-06 04:11:00,
2013-08-05 22:16:00,72.0,49.4,30.10,North,360,5.0,17.0,45,0.00,,,0.00,Weather View 32 v70,2013-08-06 04:16:00,
2013-08-05 22:21:00,72.0,49.4,30.10,North,360,8.0,17.0,45,0.00,,,0.00,Weather View 32 v70,2013-08-06 04:21:00,
2013-08-05 22:26:00,71.0,49.1,30.10,NW,315,6.0,17.0,46,0.00,,,0.00,Weather View 32 v70,2013-08-06 04:26:00,
2013-08-05 22:31:00,71.0,49.7,30.10,North,360,7.0,17.0,47,0.00,,,0.00,Weather View 32 v70,2013-08-06 04:31:00,
2013-08-05 22:36:00,71.0,49.7,30.10,North,360,6.0,17.0,47,0.00,,,0.00,Weather View 32 v70,2013-08-06 04:36:00,
2013-08-05 22:41:00,71.0,49.7,30.09,North,360,6.0,17.0,47,0.00,,,0.00,Weather View 32 v70,2013-08-06 04:41:00,
2013-08-05 22:46:00,71.0,49.7,30.09,North,360,2.0,17.0,47,0.00,,,0.00,Weather View 32 v70,2013-08-06 04:46:00,
2013-08-05 22:51:00,71.0,49.7,30.10,NE,45,0.0,17.0,47,0.00,,,0.00,Weather View 32 v70,2013-08-06 04:51:00,
2013-08-05 22:56:00,70.0,48.8,30.10,South,180,2.0,17.0,47,0.00,,,0.00,Weather View 32 v70,2013-08-06 04:56:00,
2013-08-05 23:01:00,70.0,48.8,30.10,SE,135,5.0,17.0,47,0.00,,,0.00,Weather View 32 v70,2013-08-06 05:01:00,
2013-08-05 23:06:00,70.0,49.4,30.10,SE,135,1.0,17.0,48,0.00,,,0.00,Weather View 32 v70,2013-08-06 05:06:00,
2013-08-05 23:11:00,70.0,48.8,30.10,NNE,22,2.0,14.0,47,0.00,,,0.00,Weather View 32 v70,2013-08-06 05:11:00,
2013-08-05 23:16:00,70.0,49.4,30.10,South,180,5.0,14.0,48,0.00,,,0.00,Weather View 32 v70,2013-08-06 05:16:00,
2013-08-05 23:21:00,70.0,49.4,30.11,SE,135,4.0,14.0,48,0.00,,,0.00,Weather View 32 v70,2013-08-06 05:21:00,
2013-08-05 23:26:00,70.0,49.4,30.11,SE,135,1.0,14.0,48,0.00,,,0.00,Weather View 32 v70,2013-08-06 05:26:00,
2013-08-05 23:31:00,69.0,49.0,30.11,SE,135,3.0,14.0,49,0.00,,,0.00,Weather View 32 v70,2013-08-06 05:31:00,
2013-08-05 23:36:00,69.0,49.0,30.11,SE,135,0.0,14.0,49,0.00,,,0.00,Weather View 32 v70,2013-08-06 05:36:00,
2013-08-05 23:41:00,69.0,49.0,30.12,North,360,2.0,14.0,49,0.00,,,0.00,Weather View 32 v70,2013-08-06 05:41:00,
2013-08-05 23:46:00,69.0,49.0,30.12,North,360,4.0,9.0,49,0.00,,,0.00,Weather View 32 v70,2013-08-06 05:46:00,
2013-08-05 23:51:00,70.0,48.2,30.12,South,180,5.0,9.0,46,0.00,,,0.00,Weather View 32 v70,2013-08-06 05:51:00,
2013-08-05 23:56:00,70.0,48.8,30.12,SW,225,10.0,13.0,47,0.00,,,0.00,Weather View 32 v70,2013-08-06 05:56:00,